Simultaneous Nadir Overpasses (SNOs) Predictions

Prediction of SNOs between FY3D and AQUA Satellite Orbit:

Table of predicted SNOs for the next 14.0 days since TLE Epoch: 10/23/2021
Index Date (FY3D) Time (FY3D) Lat,Lon (FY3D) SZA (FY3D ) Date (AQUA) Time (AQUA) Lat,Lon (AQUA) SZA (AQUA ) Distance(km) Time Diff (sec)
1 10/24/2021 22:23:03 -68.20, 27.06 99.70 10/24/2021 22:23:12 -68.20, 27.07 99.70 0.31 9
2 10/24/2021 23:12:25 63.60,-160.71 76.06 10/24/2021 23:11:19 63.60,-160.74 76.03 1.70 66
3 10/27/2021 14:39:37 -69.14, 141.74 97.89 10/27/2021 14:40:00 -69.14, 141.77 97.89 1.04 23
4 10/27/2021 15:29:04 64.86, -45.94 78.13 10/27/2021 15:28:12 64.86, -45.97 78.11 1.36 52
5 10/30/2021 06:56:08 -69.87,-103.36 96.30 10/30/2021 06:56:45 -69.86,-103.33 96.31 1.30 37
6 10/30/2021 07:45:41 65.95, 68.90 80.02 10/30/2021 07:45:03 65.95, 68.87 80.01 1.35 38
7 11/01/2021 23:12:37 -70.48, 11.63 94.85 11/01/2021 23:13:28 -70.48, 11.65 94.85 1.06 51
8 11/02/2021 00:02:15 66.87,-176.16 81.74 11/02/2021 00:01:51 66.87,-176.20 81.73 1.72 24
9 11/04/2021 15:29:04 -70.99, 126.73 93.52 11/04/2021 15:30:09 -70.99, 126.74 93.52 0.29 65



Historial Predications of SNOs between FY3D and AQUA
